Flag for Myanmar Weather past 2 weeks in Yangon, Myanmar

81 °F

Partly sunny.

Feels Like: 88 °F
Forecast: 78 / 88 °F
Wind: 2 mph from Southwest

Location: Rangoon Airport

Current Time: Oct 4, 2015 at 4:57:45 PM

Latest Report: Oct 4, 2015 at 4:00 PM

Visibility: 5 mi

Pressure: 29.74 "Hg

Humidity: 94%

Dew point: 79 °F

Location of YangonLocation

Historic Weather in Yangon — Graph


Yangon temperature yesterday

Maximum temperature yesterday: 88 °F (at 11:30 AM)
Minimum temperature yesterday: 79 °F (at 3:00 AM)
Average temperature yesterday: 83 °F

Past Weeks' High & Low Weather Summary

High91 °F (Sep 20, 2:00 PM)100% (Sep 20, 6:00 AM)29.95 "Hg (Sep 20, 6:00 AM)
Low77 °F (Sep 20, 4:00 AM)59% (Sep 20, 2:00 PM)29.56 "Hg (Oct 4, 8:00 AM)
Average83 °F85%29.80 "Hg
* Reported Sep 19 3:30 PM — Oct 4 3:30 PM, Yangon, Weather by CustomWeather, © 2015

Note: Actual official high and low records may vary slightly from our data, if they occured in-between our weather recording intervals... More about our weather records


Yangon weather history for previous 24 hours

Time TempWeatherWind HumidityBarometerVisibility
3:30 PM
Sun, Oct 4
81 °FThunderstorms. Partly sunny.5 mph94%29.77 "Hg4 mi
3:00 PM81 °FThunderstorms. Partly sunny.6 mph94%29.77 "Hg4 mi
2:30 PM81 °FRain. Mostly cloudy.8 mph100%29.77 "Hg2 mi
2:00 PM90 °FPartly sunny.5 mph71%29.77 "Hg5 mi
1:30 PM90 °FPartly sunny.15 mph71%29.77 "Hg5 mi
1:00 PM90 °FPartly sunny.8 mph71%29.80 "Hg5 mi
12:00 PM88 °FPartly sunny.5 mph79%29.83 "Hg5 mi
11:30 AM88 °FScattered clouds.7 mph79%29.86 "Hg5 mi
10:00 AM86 °FScattered clouds.7 mph75%29.89 "Hg5 mi
9:30 AM86 °FPassing clouds.7 mph75%29.89 "Hg4 mi
9:00 AM84 °FScattered clouds.7 mph84%29.89 "Hg4 mi
8:30 AM81 °FScattered clouds.7 mph94%29.89 "Hg4 mi
8:00 AM81 °FScattered clouds.7 mph94%29.56 "Hg4 mi
7:30 AM79 °FMostly cloudy.7 mph100%29.86 "Hg4 mi
7:00 AM79 °FScattered clouds.3 mph100%29.86 "Hg4 mi
6:30 AM79 °FMostly cloudy.3 mph100%29.83 "Hg4 mi
6:00 AM79 °FFog.3 mph100%29.83 "Hg3 mi
5:00 AM79 °FWarm.3 mph100%29.83 "Hg5 mi
11:30 PM
Sat, Oct 3
81 °FPassing clouds.3 mph94%29.86 "Hg4 mi
11:00 PM81 °FPassing clouds.3 mph94%29.86 "Hg4 mi
10:00 PM81 °FPassing clouds.6 mph94%29.86 "Hg4 mi
9:30 PM82 °FPassing clouds.6 mph84%29.86 "Hg4 mi
9:00 PM82 °FPassing clouds.6 mph84%29.86 "Hg4 mi
8:30 PM82 °FPassing clouds.6 mph84%29.86 "Hg4 mi
8:00 PM82 °FPassing clouds.6 mph84%29.83 "Hg4 mi
7:30 PM82 °FPassing clouds.6 mph84%29.83 "Hg4 mi
7:00 PM79 °FPassing clouds.6 mph94%29.83 "Hg4 mi
6:30 PM84 °FPassing clouds.6 mph84%29.80 "Hg4 mi
6:00 PM84 °FScattered clouds.6 mph84%29.80 "Hg4 mi
5:30 PM86 °FScattered clouds.6 mph75%29.77 "Hg4 mi
5:00 PM86 °FScattered clouds.6 mph75%29.77 "Hg4 mi
4:30 PM86 °FScattered clouds.6 mph75%29.74 "Hg4 mi
4:00 PM88 °FScattered clouds.6 mph75%29.74 "Hg4 mi
Weather by CustomWeather, © 2015

See weather overviewHow to use our weather pages